Back to catalog

STARLINK-36483

AliveCommunicationsVLEO
NORAD 67330·PAYLOAD·🇺🇸 United States

Launched Jan 4, 2026 from Cape Canaveral Space Force Station

Loading…

Next Passes (next 24 hours)

TLE

FreshSource: CelesTrak SupGP

Epoch: Sep 14, 2026, 22:44 UTC

1 67330C 26002AB  26257.94770833 -.00022389  00000+0 -81058-3 0  2579
2 67330  43.0012 336.7072 0001805 277.8343 323.4738 15.27602562    14

Track STARLINK-36483 in real time with AllMySat

Download on the App Store